Skip Page Navigation
NASA JPL Caltech
NASA Logo - Jet Propulsion Laboratory + View the NASA Portal
+ Center for Near-Earth Object Studies
JPL Home Earth Solar System Stars & Galaxies Technology
JPL Solar System Dynamics
BODIES ORBITS EPHEMERIDES TOOLS PHYSICAL DATA DISCOVERY FAQ SITE MAP
JPL Small-Body Database Browser
Search: [ help ]  
(2016 JN)
Classification: Amor [NEO]          SPK-ID: 3752723
Ephemeris | Orbit Diagram | Orbital Elements | Mission Design | Physical Parameters | Close-Approach Data ]

[ show orbit diagram ]
Orbital Elements at Epoch 2459000.5 (2020-May-31.0) TDB
Reference: JPL 19 (heliocentric ecliptic J2000)
 Element Value Uncertainty (1-sigma)   Units 
e .3449835203507826 4.8946e-08  
a 1.576834908588555 9.291e-09 au
q 1.032852850811671 7.8563e-08 au
i 6.099809389756978 8.4851e-06 deg
node 216.29602265 4.5377e-05 deg
peri 90.54238248131753 5.9303e-05 deg
M 332.3770707215008 1.4946e-05 deg
tp 2459055.993867969595
(2020-Jul-25.49386797)
2.9976e-05 TDB
period 723.2322201470575
1.98
6.3921e-06
1.75e-08
d
yr
n .497765434077038 4.3994e-09 deg/d
Q 2.120816966365439 1.2496e-08 au
  Orbit Determination Parameters
   # obs. used (total)      62  
   data-arc span      1501 days (4.11 yr)  
   first obs. used      2016-05-01  
   last obs. used      2020-06-10  
   planetary ephem.      DE431  
   SB-pert. ephem.      SB431-N16  
   condition code      0  
   norm. resid. RMS      .47792  
   source      ORB  
   producer      Otto Matic  
   solution date      2020-Jul-25 06:39:22  

Additional Information
 Earth MOID = .10854 au 
 Jupiter MOID = 3.16272 au 
 T_jup = 4.327 
[ show covariance matrix ]

Ephemeris | Orbit Diagram | Orbital Elements | Mission Design | Physical Parameters | Close-Approach Data ]

Physical Parameter Table
Parameter Symbol Value Units Sigma Reference Notes
absolute magnitude H 23.4   n/a MPO461069  

[ show close-approach data ]
Ephemeris | Orbit Diagram | Orbital Elements | Mission Design | Physical Parameters | Close-Approach Data ]
ABOUT SSD CREDITS/AWARDS PRIVACY/COPYRIGHT GLOSSARY LINKS
FirstGov 2020-Aug-08 21:28 UT
(server date/time)  
NASA Home Page
Site Manager:   Ryan S. Park
Webmaster  Alan B. Chamberlin